Regional Weather Roundup
Issued by NWS

Home | Current Version | Previous Version | Text Only | Print | Product List | Glossary Off
Versions: 1 2 3 4 5 6 7 8 9 10 11 12 13 14 15 16 17 18 19 20 21 22 23 24 25 26 27 28 29 30 31 32 33 34 35 36 37 38 39 40 41 42 43 44 45 46 47 48 49 50

000
ASUS43 KDTX 280810
RWRMI
MICHIGAN HOURLY REGIONAL WEATHER ROUNDUP
NATIONAL WEATHER SERVICE DETROIT/PONTIAC MI
400 AM EDT THU MAY 28 2015

NOTE: "FAIR" INDICATES FEW OR NO CLOUDS BELOW 12,000 FEET WITH NO
SIGNIFICANT WEATHER AND/OR OBSTRUCTION TO VISIBILITY.

MIZ047>049-052>055-059>063-066>070-074>076-081>083-280900-
SOUTHEAST LOWER MICHIGAN

CITY           SKY/WX    TMP DP  RH WIND       PRES   REMARKS
ADRIAN         CLEAR     55  54  96 CALM      30.18R
ANN ARBOR      CLEAR     51  51 100 CALM      30.16S FOG
DETROIT CITY   CLEAR     59  55  87 CALM      30.16R
DETROIT        PTCLDY    61  56  83 CALM      30.17R
FLINT          MOCLDY    57  54  89 SW3       30.17R

CITY           SKY/WX    TMP DP  RH WIND       PRES   REMARKS
JACKSON        CLEAR     53  51  93 CALM      30.17R FOG
LANSING        CLEAR     55  54  96 CALM      30.17R
LAPEER         NOT AVBL
MT. CLEMENS    CLEAR     56  55  96 CALM      30.14R
PONTIAC        CLEAR     56  55  97 CALM      30.15R
PORT HOPE        N/A     57  50  77 W5        30.14R
TRI CITIES     PTCLDY    61  56  83 CALM      30.16R
MIDLAND        NOT AVBL
$$
MIZ043>046-050>051-056>058-064>065-071>073-077>080-280900-
SOUTHWEST LOWER MICHIGAN

CITY           SKY/WX    TMP DP  RH WIND       PRES   REMARKS
BATTLE CREEK   CLEAR     55  53  93 CALM      30.18R
BENTON HARBOR  CLEAR     52  51  97 CALM      30.17R FOG
HOLLAND        CLEAR     54  52  93 CALM      30.17R
GRAND RAPIDS   CLEAR     54  53  97 S5        30.17R
KALAMAZOO      CLEAR     54  53  97 CALM      30.18R FOG
MUSKEGON       CLEAR     54  52  93 S3        30.16R
$$
MIZ016>042-280900-
NORTHERN LOWER MICHIGAN

CITY           SKY/WX    TMP DP  RH WIND       PRES   REMARKS
ALPENA         PTCLDY    55  52  89 CALM      30.12R
GAYLORD        PTCLDY    53  53 100 SW3       30.12R
HOUGHTON LAKE  MOCLDY    58  54  86 SW5       30.13S
MANISTEE       MOCLDY    57  52  82 CALM      30.13F
PELLSTON       MOCLDY    50  49  96 CALM      30.10R
TRAVERSE CITY  PTCLDY    56  54  93 CALM      30.09R
$$
MIZ007>008-015-280900-
EASTERN UPPER MICHIGAN

CITY           SKY/WX    TMP DP  RH WIND       PRES   REMARKS
KINROSS        CLEAR     48  48 100 CALM      30.10R
S. S. MARIE    PTCLDY    50  48  93 CALM      30.09R FOG
MUNISING         N/A     47  45  93 NE5       30.10R
$$
MIZ004>006-011>014-085-280900-
CENTRAL UPPER MICHIGAN

CITY           SKY/WX    TMP DP  RH WIND       PRES   REMARKS
ESCANABA       MOCLDY    50  46  87 CALM      30.09R VSB 1/2
MENOMINEE      CLEAR     57  52  82 CALM      30.08R
$$
MIZ001>003-009>011-084-280900-
WESTERN UPPER MICHIGAN

CITY           SKY/WX    TMP DP  RH WIND       PRES   REMARKS
IRON MOUNTAIN  CLEAR     51  48  89 NW3       30.09R
HOUGHTON       CLEAR     45  41  86 E7        30.12R
COPPER HARBOR    N/A     43  39  86 VRB3      30.14S
IRONWOOD       CLEAR     52  50  93 E3        30.06R
$$

ABBREVIATIONS USED IN REMARKS
   TC - TEMPERATURE IN CELSIUS
  WCI - WIND CHILL INDEX
   HX - HEAT INDEX
  VSB - VISIBILITY



USA.gov is the U.S. government's official web portal to all federal, state and local government web resources and services.